Seattle Boeing, WA
on Saturday, February 16, 2013

Saturday
Previous Day Next Day
Daily Summary
 ActualAverage (KSEA)Record (KSEA)
Temperature
Mean Temperature °F 43°F  
Max Temperature 54°F 50°F 58°F (1997)
Min Temperature 39°F 37°F 13°F (1956)
Degree Days
Heating Degree Days 18 22  
Month to date heating degree days 352  
Since 1 July heating degree days 3001  
Cooling Degree Days 0 0  
Month to date cooling degree days 0  
Year to date cooling degree days 0  
Moisture
Dew Point 39°F   
Average Humidity 74    
Maximum Humidity 89    
Minimum Humidity 51    
Precipitation
Precipitation 0.00 in 0.12 in 1.83 in (1949)
Month to date precipitation 2.06  
Year to date precipitation 7.63  
Snow
Snow 0.00 in in 3.50 in (1990)
Month to date snowfall  
Since 1 July snowfall  
Snow Depth in   
Wind
Wind Speed 7 mph   
Max Wind Speed 14 mph   
Max Gust Speed 25 mph   
Visibility 10 miles   
Events Rain   

Key: T is trace of precipitation, MM is missing value
Source: NWS Daily Summary
Time(PST)TemperatureDew PointHumidity Pressure Visibility Wind DirectionWind SpeedGust SpeedPrecipitationEvents Conditions
12:53 AM 39.9°F 37.0°F 89% 30.18 in 10.0 miles Calm Calm - N/A   Clear
1:53 AM 39.0°F 36.0°F 89% 30.17 in 8.0 miles SE 6.9 mph - N/A   Clear
2:53 AM 41.0°F 37.9°F 89% 30.17 in 8.0 miles SSE 9.2 mph - N/A   Mostly Cloudy
3:53 AM 43.0°F 39.0°F 86% 30.16 in 10.0 miles SE 10.4 mph - N/A   Overcast
4:53 AM 45.0°F 41.0°F 86% 30.16 in 10.0 miles SE 9.2 mph - N/A   Overcast
5:53 AM 46.0°F 41.0°F 83% 30.16 in 10.0 miles SSE 5.8 mph - N/A   Overcast
6:53 AM 46.0°F 41.0°F 83% 30.16 in 10.0 miles ESE 3.5 mph - N/A   Overcast
7:53 AM 48.0°F 41.0°F 77% 30.17 in 10.0 miles SSE 8.1 mph - N/A   Overcast
8:53 AM 48.9°F 41.0°F 74% 30.17 in 10.0 miles South 11.5 mph 17.3 mph N/A   Overcast
9:53 AM 48.9°F 42.1°F 77% 30.17 in 10.0 miles Variable 6.9 mph 17.3 mph N/A   Mostly Cloudy
10:53 AM 50.0°F 41.0°F 71% 30.17 in 10.0 miles SSW 9.2 mph 17.3 mph N/A   Overcast
11:53 AM 53.1°F 39.9°F 61% 30.16 in 10.0 miles South 10.4 mph - N/A   Mostly Cloudy
12:53 PM 53.1°F 37.0°F 55% 30.14 in 10.0 miles SSW 13.8 mph 25.3 mph N/A   Scattered Clouds
1:53 PM 54.0°F 37.9°F 55% 30.13 in 10.0 miles SSW 13.8 mph 18.4 mph N/A   Scattered Clouds
2:53 PM 54.0°F 36.0°F 51% 30.12 in 10.0 miles SSW 11.5 mph 21.9 mph N/A   Scattered Clouds
3:53 PM 48.9°F 39.9°F 71% 30.13 in 10.0 miles Calm Calm - N/A   Overcast
4:45 PM 48.2°F 39.2°F 71% 30.14 in 10.0 miles NNE 9.2 mph - 0.00 in   Overcast
4:53 PM 48.9°F 39.0°F 69% 30.14 in 10.0 miles ENE 9.2 mph - 0.00 in   Mostly Cloudy
5:53 PM 46.9°F 37.9°F 71% 30.15 in 10.0 miles East 9.2 mph - N/A   Overcast
6:53 PM 46.9°F 37.0°F 68% 30.16 in 10.0 miles South 8.1 mph - N/A   Overcast
7:53 PM 46.0°F 37.0°F 71% 30.16 in 10.0 miles SE 6.9 mph - N/A   Overcast
8:53 PM 45.0°F 37.0°F 74% 30.18 in 10.0 miles South 8.1 mph - 0.00 in Rain Light Rain
9:53 PM 45.0°F 37.0°F 74% 30.18 in 10.0 miles SSE 5.8 mph - 0.00 in   Overcast
10:53 PM 44.1°F 36.0°F 73% 30.19 in 10.0 miles SSE 5.8 mph - N/A   Overcast
11:53 PM 44.1°F 35.1°F 71% 30.21 in 10.0 miles SSE 6.9 mph - N/A   Scattered Clouds
Moon Phase
Feb. 16 Feb. 17 Feb. 25 Mar. 04 Mar. 11
Sunrise:07:12 AM (PST) Moon Rise:09:57 AM (PST)2/16
Sunset:05:34 PM (PST) Moon Set:12:09 AM (PST)2/16

Copyright © 2014 The Weather Underground, Inc.